Wind_Speed
74 74 72 70 69 69 69 69 70 71 71 71 70 69 68 67 66 65 63 62 61 61 60 60 60 60 60 62 63 63 63 63 62 59 59 58 58 61 64 62 62 66 66
68 65 66 68 68 70 71 72 72 70 68 68 67 67 66 64 62 61 60 59 59 58 58 58 59 60 61 63 63 63 63 62 62 59 56 56 57 60 61 60 57 57 60
65 67 69 70 71 71 70 68 67 67 66 66 66 65 62 61 60 59 59 60 59 59 59 59 60 61 62 63 62 61 60 58 57 56 55 55 55 57 58 55 55 56 56
68 68 67 66 64 65 65 65 65 65 64 64 63 62 60 59 59 59 59 60 59 59 60 61 62 62 62 62 63 62 60 59 57 57 55 55 54 54 56 57 50 49 51
62 63 64 65 66 65 65 64 63 62 61 61 60 60 59 59 59 59 59 59 60 60 61 62 63 63 64 64 65 65 64 63 62 60 60 58 58 57 57 57 57 56 54
63 64 65 66 67 67 66 64 62 59 59 58 58 58 58 58 58 58 58 59 60 61 61 63 64 65 66 66 67 69 70 70 68 68 67 67 66 66 64 65 66 65 64
66 66 66 66 65 65 64 61 59 57 57 57 57 57 57 55 56 57 58 59 60 61 62 63 64 65 66 67 69 71 72 74 76 76 77 77 76 77 76 74 75 75 74
62 64 64 63 63 62 61 60 58 57 56 55 54 54 55 56 57 56 57 59 60 62 63 64 67 68 70 71 72 73 75 77 80 82 83 84 85 86 88 87 86 85 82
61 62 62 62 62 62 61 58 56 57 56 56 56 55 56 57 58 58 59 61 62 64 66 69 71 72 73 75 77 77 78 81 83 85 88 88 90 92 94 94 94 94 89
60 59 58 58 59 59 59 58 60 61 59 56 56 57 58 59 60 60 62 64 66 69 71 72 75 76 78 80 81 81 82 83 84 85 87 88 91 92 94 96 98 98 99
60 55 53 52 53 57 59 58 59 57 58 58 59 60 62 63 65 65 67 68 68 70 72 73 75 75 77 80 82 84 86 87 88 91 92 95 97 99 102 104 107 109 109
54 59 58 57 59 59 62 65 61 62 62 62 62 64 65 66 67 69 70 71 73 74 75 76 77 79 81 83 86 89 92 96 98 100 102 103 104 106 109 109 111 110 109
57 55 55 59 63 65 63 62 60 60 61 62 64 67 68 69 73 74 74 76 78 79 80 81 82 85 88 91 96 99 102 105 106 106 107 108 109 108 105 102 99 99 96
58 60 61 62 59 60 62 63 62 63 65 67 66 69 71 73 73 75 77 79 82 83 83 86 88 91 95 98 102 106 107 106 104 101 97 93 92 90 89 89 86 86 84
58 58 60 63 64 65 65 69 66 64 68 71 74 76 75 74 77 79 82 84 85 87 89 91 94 96 98 99 97 94 90 89 86 85 83 81 79 76 75 73 71 69 69
59 63 63 61 64 69 72 68 68 70 73 75 76 75 77 78 81 84 86 87 90 91 91 92 92 92 90 88 84 80 79 78 77 76 73 71 69 68 67 66 65 63 59
63 57 61 61 60 63 63 67 68 68 69 72 74 76 79 82 85 87 88 87 86 88 88 88 87 84 79 77 75 74 72 71 70 69 68 67 67 66 65 64 62 59 57
54 62 64 60 61 60 62 63 63 65 69 73 77 80 81 81 82 84 85 86 86 84 79 74 73 72 72 71 69 67 66 65 64 62 60 59 59 57 56 56 56 56 54
59 59 57 54 54 56 58 62 66 69 71 71 72 74 76 79 81 81 81 79 74 70 67 66 68 68 66 65 63 61 60 59 60 61 61 60 59 57 56 54 53 53 51
47 49 52 55 58 61 64 66 65 64 66 69 73 76 78 78 80 77 71 67 65 62 63 65 65 63 62 58 57 57 58 58 59 59 59 59 57 56 55 53 53 51 49
53 56 58 61 62 63 61 62 64 66 69 71 74 76 77 75 70 64 60 61 59 60 63 61 60 58 56 56 56 54 54 55 55 54 54 53 53 53 52 52 51 50 49
55 56 56 57 59 62 63 64 65 67 70 73 75 76 72 67 61 57 56 56 59 59 58 56 54 55 56 53 52 52 53 54 54 54 52 51 50 50 48 48 48 49 48
52 54 57 60 62 64 66 67 67 69 72 74 72 67 63 58 54 53 55 57 55 54 54 53 54 54 52 53 54 54 54 55 56 57 56 54 53 52 50 49 49 49 50
54 56 59 61 63 64 65 66 69 72 73 70 65 60 55 52 51 54 55 52 51 52 51 53 53 52 52 53 54 55 56 57 58 58 57 55 54 54 54 53 53 53 52
57 58 60 61 62 62 64 67 70 72 69 64 57 52 50 50 52 53 50 49 50 49 51 53 53 52 53 54 56 58 60 61 60 59 56 54 53 53 53 54 55 56 54
57 58 59 60 61 64 67 69 69 66 61 55 50 48 48 50 49 47 47 48 48 49 51 52 53 54 55 57 59 61 62 62 60 58 57 56 55 55 56 57 57 57 54
Wind_Direction
276 276 276 277 277 277 278 278 278 279 280 281 283 283 282 282 282 282 281 280 280 280 280 280 280 280 282 282 283 283 284 285 285 286 285 284 283 280 279 279 278 275 278
272 273 274 274 275 276 278 279 280 281 282 282 283 283 283 282 282 281 280 279 278 278 278 278 278 279 279 280 281 283 284 285 285 285 284 283 280 278 277 277 278 276 276
273 273 274 275 276 278 279 279 280 282 282 282 281 281 281 279 279 279 279 280 279 279 279 279 279 280 281 282 283 283 283 283 283 283 282 280 278 276 277 280 279 279 277
273 274 276 277 277 277 279 280 280 281 281 280 279 278 277 277 278 278 279 279 278 278 278 279 280 280 280 280 282 282 282 282 281 280 279 278 278 277 277 276 274 277 276
273 274 275 276 278 278 278 279 280 280 279 279 277 277 277 277 278 279 278 278 279 279 280 281 281 282 282 282 282 282 282 280 279 279 278 277 277 277 277 277 277 277 277
276 277 277 277 277 277 278 278 278 277 277 277 277 278 277 278 279 279 279 279 280 281 282 283 283 284 284 284 284 284 284 283 283 282 281 279 278 277 276 276 276 275 274
277 276 275 275 275 276 276 276 278 277 277 278 278 279 279 278 278 279 280 281 282 283 284 285 285 286 286 286 285 285 286 286 286 284 283 282 280 278 277 276 276 275 273
279 278 278 278 277 276 278 280 281 281 280 280 279 279 279 280 280 280 280 281 282 284 284 285 285 286 286 286 285 286 285 285 285 285 285 284 283 281 280 278 276 275 275
282 282 282 281 279 279 280 280 279 278 278 279 279 279 280 279 280 281 282 284 285 286 287 287 287 286 286 285 284 285 284 285 286 286 286 286 285 284 283 282 281 280 277
283 283 283 283 284 282 280 279 277 278 278 279 280 280 281 283 283 284 285 285 285 285 286 287 287 288 288 289 289 288 288 287 287 287 287 287 288 288 287 286 284 282 280
279 279 282 283 284 282 278 275 275 275 276 278 280 282 284 285 286 286 285 287 287 286 288 289 289 289 290 290 289 289 289 289 289 288 288 287 287 287 287 288 288 287 285
281 279 280 281 283 282 280 278 274 274 276 279 282 284 286 288 288 288 289 289 290 291 292 291 290 290 291 291 291 291 292 292 292 292 291 291 290 290 289 288 287 287 286
286 281 278 281 283 278 281 278 280 280 281 285 286 285 287 289 290 290 290 291 291 292 292 291 292 292 292 293 294 295 295 295 294 293 292 291 290 289 288 287 286 286 285
281 279 280 276 280 278 277 280 282 283 282 282 283 284 287 289 289 290 291 292 292 292 292 291 293 294 295 295 295 295 295 294 294 293 292 290 291 291 291 290 289 286 285
276 277 277 277 276 275 278 280 279 279 279 279 281 285 287 289 290 290 291 292 291 291 293 294 295 296 296 297 297 297 295 294 294 294 295 295 295 294 294 293 294 292 289
275 275 269 274 277 277 274 273 275 275 277 278 281 284 287 287 287 289 290 291 292 293 295 295 296 297 297 296 296 296 296 296 297 298 297 296 295 295 295 296 297 297 292
269 277 267 267 270 272 273 274 274 277 281 283 286 286 286 287 289 290 293 295 296 296 297 297 296 296 296 297 298 298 299 299 298 298 298 298 298 297 296 295 296 297 297
274 276 274 268 270 272 274 277 282 285 286 286 286 287 290 293 294 295 296 297 297 296 296 296 297 298 299 300 300 300 300 299 299 299 300 301 302 304 303 299 297 295 298
276 272 273 276 279 279 281 282 284 285 288 291 292 293 295 297 297 297 297 297 296 296 296 298 299 300 301 300 301 300 300 300 300 300 301 301 302 302 301 302 301 299 298
276 277 278 278 279 281 283 285 287 288 291 294 295 296 297 297 298 298 297 296 297 297 298 300 300 300 301 300 301 301 301 302 303 303 303 302 302 301 301 301 299 300 299
275 277 279 281 283 285 284 285 287 289 292 294 296 297 297 298 296 295 295 295 295 296 298 299 300 300 300 301 302 302 304 305 305 307 307 307 305 303 301 300 299 298 298
282 282 282 283 284 285 286 286 289 292 294 296 297 298 297 295 294 292 293 293 296 298 299 300 300 300 301 301 302 303 304 305 305 306 307 308 308 307 305 302 300 299 297
284 285 285 286 287 288 289 290 292 294 296 297 297 296 295 294 292 292 293 296 297 298 299 299 301 302 302 302 303 303 304 304 304 303 303 303 303 303 304 305 304 301 297
288 288 288 289 290 290 290 291 294 296 297 297 296 294 291 290 288 291 295 295 296 297 297 300 302 302 303 304 305 306 307 306 306 305 304 303 301 300 300 300 301 303 300
292 291 290 289 289 290 292 295 297 298 297 296 294 290 289 288 289 293 293 294 296 296 298 301 302 303 305 307 308 309 308 307 306 304 303 303 302 301 300 301 301 302 300
294 292 292 292 293 295 297 298 297 296 295 293 290 288 288 289 291 292 293 294 296 298 300 301 303 304 306 307 309 309 309 308 307 305 305 304 303 302 301 301 301 301 298
Height
5717 5716 5714 5713 5710 5707 5705 5702 5700 5697 5694 5691 5688 5685 5682 5677 5673 5670 5667 5664 5661 5657 5654 5650 5647 5644 5641 5637 5633 5630 5626 5624 5624 5626 5622 5620 5617 5613 5612 5610 5609 5610 5609
5700 5699 5698 5696 5694 5691 5688 5686 5683 5680 5677 5673 5670 5667 5663 5659 5656 5654 5651 5648 5645 5642 5639 5636 5633 5629 5626 5622 5619 5614 5610 5606 5606 5608 5605 5603 5600 5597 5594 5594 5594 5593 5591
5685 5683 5682 5680 5678 5675 5672 5669 5666 5663 5660 5657 5653 5650 5647 5643 5640 5638 5635 5632 5628 5625 5623 5619 5616 5614 5611 5607 5604 5600 5595 5591 5589 5588 5588 5586 5584 5581 5579 5577 5577 5578 5575
5668 5666 5664 5663 5660 5658 5655 5652 5649 5646 5643 5640 5637 5635 5632 5628 5625 5623 5620 5617 5613 5609 5606 5603 5600 5597 5594 5591 5587 5583 5578 5576 5573 5571 5570 5568 5565 5564 5561 5560 5563 5560 5560
5651 5649 5647 5645 5643 5641 5637 5634 5632 5629 5626 5623 5621 5619 5617 5614 5611 5608 5604 5601 5598 5594 5591 5587 5584 5580 5577 5574 5570 5566 5561 5559 5557 5555 5553 5550 5548 5546 5543 5542 5542 5543 5545
5634 5632 5630 5628 5626 5623 5621 5618 5615 5613 5611 5608 5606 5603 5602 5598 5595 5592 5588 5585 5582 5578 5574 5570 5566 5562 5559 5556 5552 5547 5544 5541 5539 5536 5533 5531 5529 5526 5525 5522 5522 5522 5523
5617 5615 5612 5610 5607 5605 5603 5601 5599 5597 5595 5592 5590 5587 5585 5583 5580 5578 5574 5571 5566 5562 5558 5553 5549 5545 5542 5539 5535 5529 5525 5520 5517 5516 5513 5508 5506 5501 5501 5501 5498 5498 5499
5600 5598 5595 5593 5590 5588 5586 5584 5582 5580 5579 5576 5574 5571 5569 5567 5564 5562 5558 5554 5551 5545 5540 5536 5532 5528 5524 5520 5517 5513 5508 5502 5498 5493 5489 5485 5480 5476 5472 5472 5471 5471 5476
5583 5581 5578 5576 5574 5572 5570 5568 5566 5564 5561 5559 5558 5555 5553 5549 5547 5545 5542 5537 5534 5528 5521 5516 5513 5509 5504 5498 5495 5491 5487 5482 5476 5471 5465 5459 5454 5447 5441 5441 5438 5436 5445
5566 5564 5562 5561 5559 5557 5555 5553 5550 5548 5546 5544 5541 5540 5537 5532 5530 5528 5525 5520 5516 5511 5504 5497 5490 5487 5482 5476 5472 5468 5466 5460 5455 5451 5444 5436 5427 5421 5413 5406 5404 5403 5402
5549 5548 5547 5546 5545 5542 5540 5537 5535 5532 5530 5527 5525 5522 5520 5516 5511 5508 5504 5500 5497 5490 5485 5480 5472 5467 5461 5454 5448 5444 5439 5434 5429 5423 5417 5410 5403 5395 5386 5377 5367 5362 5363
5532 5531 5530 5530 5528 5526 5524 5522 5519 5516 5513 5510 5507 5504 5500 5497 5493 5489 5483 5479 5475 5470 5465 5458 5452 5446 5438 5431 5424 5418 5412 5405 5400 5393 5385 5377 5370 5362 5353 5347 5337 5329 5322
5517 5515 5515 5513 5511 5509 5507 5504 5502 5499 5495 5492 5489 5486 5481 5476 5472 5468 5462 5457 5453 5447 5442 5434 5428 5421 5414 5405 5396 5389 5381 5374 5368 5362 5353 5344 5335 5326 5316 5309 5303 5293 5292
5501 5500 5498 5498 5495 5491 5488 5487 5484 5481 5478 5474 5470 5467 5462 5457 5451 5447 5442 5436 5431 5425 5419 5410 5402 5395 5386 5378 5369 5360 5351 5342 5334 5327 5320 5310 5301 5293 5284 5273 5271 5263 5259
5484 5482 5480 5478 5476 5473 5470 5467 5464 5460 5457 5454 5451 5448 5443 5436 5431 5425 5420 5414 5407 5401 5395 5386 5377 5368 5359 5349 5340 5331 5322 5313 5305 5297 5289 5282 5274 5266 5258 5249 5242 5237 5230
5463 5461 5460 5457 5455 5453 5449 5447 5444 5441 5438 5435 5430 5426 5422 5416 5409 5403 5396 5390 5382 5376 5368 5360 5350 5342 5334 5326 5317 5309 5298 5289 5280 5273 5265 5258 5252 5246 5239 5230 5222 5215 5210
5443 5441 5440 5437 5435 5434 5430 5427 5425 5421 5417 5414 5410 5405 5401 5395 5387 5379 5373 5365 5356 5350 5342 5333 5326 5318 5310 5302 5294 5286 5278 5268 5260 5252 5245 5238 5231 5225 5218 5211 5203 5196 5193
5425 5425 5423 5420 5417 5414 5412 5409 5405 5400 5396 5392 5389 5384 5378 5370 5362 5355 5348 5341 5332 5323 5318 5311 5304 5296 5288 5281 5274 5266 5258 5249 5241 5234 5226 5219 5213 5207 5200 5193 5185 5178 5175
5409 5408 5406 5403 5401 5398 5395 5392 5387 5382 5377 5370 5364 5360 5355 5346 5338 5331 5324 5318 5311 5303 5297 5290 5284 5276 5269 5263 5255 5248 5240 5232 5225 5218 5210 5203 5197 5190 5184 5177 5170 5163 5158
5395 5393 5390 5388 5384 5381 5377 5373 5368 5363 5357 5352 5344 5339 5331 5325 5315 5307 5301 5296 5290 5285 5278 5273 5265 5258 5252 5245 5239 5232 5225 5216 5209 5201 5194 5187 5180 5174 5168 5162 5156 5150 5145
5379 5377 5374 5370 5366 5362 5358 5353 5349 5344 5338 5332 5325 5318 5312 5305 5297 5289 5283 5278 5273 5268 5262 5256 5249 5242 5235 5229 5223 5216 5209 5201 5193 5186 5179 5172 5165 5159 5152 5146 5141 5135 5131
5363 5359 5356 5352 5349 5345 5340 5335 5330 5325 5319 5312 5304 5296 5291 5284 5278 5273 5268 5262 5257 5251 5245 5240 5233 5227 5220 5214 5208 5202 5195 5187 5179 5172 5166 5160 5152 5145 5139 5133 5127 5122 5117
5346 5342 5339 5335 5331 5326 5321 5316 5311 5305 5298 5292 5285 5277 5270 5264 5260 5255 5251 5246 5241 5235 5228 5223 5218 5211 5204 5198 5192 5185 5179 5172 5164 5157 5152 5146 5139 5132 5126 5120 5113 5108 5103
5330 5326 5321 5316 5312 5307 5302 5296 5291 5284 5278 5270 5263 5257 5252 5248 5244 5240 5235 5230 5225 5220 5214 5208 5202 5195 5189 5182 5175 5168 5162 5155 5148 5141 5134 5129 5123 5116 5110 5105 5098 5093 5088
5313 5308 5303 5298 5293 5288 5283 5277 5269 5262 5255 5249 5243 5239 5235 5232 5228 5224 5219 5215 5211 5206 5199 5192 5186 5180 5174 5167 5160 5152 5145 5137 5130 5123 5117 5111 5106 5099 5094 5088 5082 5077 5071
5294 5289 5284 5279 5274 5268 5263 5256 5248 5241 5235 5230 5226 5222 5220 5216 5212 5209 5205 5201 5196 5191 5185 5178 5171 5164 5157 5150 5143 5136 5128 5120 5112 5105 5099 5094 5088 5082 5076 5071 5065 5059 5053